Tappahannock, VA

2:07 PM EDT on June 28, 2017 (GMT -0400)
Tappahannock

Weather History for KXSA - February, 2013

Change the Weather History Date:

Thursday, February 21, 2013

  Actual Average (KOFP) Record (KOFP)
Temperature  
Mean Temperature 31 °F -  
Max Temperature 42 °F 54 °F 73 °F (1997)
Min Temperature 20 °F 28 °F 1 °F (2015)
Degree Days  
Heating Degree Days 34    
Moisture  
Dew Point 13 °F    
Average Humidity 45    
Maximum Humidity 70    
Minimum Humidity 32    
Precipitation  
Precipitation 0.00 in - - ()
Sea Level Pressure  
Sea Level Pressure 30.21 in    
Wind  
Wind Speed 5 mph (NW)    
Max Wind Speed 13 mph    
Max Gust Speed 17 mph    
Visibility 10 miles    
Events      
Averages and records for this station are not official NWS values.
T = Trace of Precipitation, MM = Missing Value Source: NWS Daily Summary

Daily Weather History Graph

Daily Weather History Graph

Search for Another Location

Airport or City:

Trip Planner

Search our weather history database for the weather conditions in past years. The results will help you decide how hot, cold, wet, or windy it might be!

Date:

Astronomy

Feb. 21, 2013 Rise Set
Actual Time 6:49 AM EST 5:53 PM EST
Civil Twilight 6:23 AM EST 6:19 PM EST
Nautical Twilight 5:52 AM EST 6:50 PM EST
Astronomical Twilight 5:22 AM EST 7:20 PM EST
Moon 2:08 PM EST (2/21) 3:49 AM EST (2/21)
Length of Visible Light 11h 56m
Length of Day
11h 03m
Waxing Gibbous, 83% of the Moon is Illuminated
Feb 21
Waxing Gibbous
Feb 25
Full
Mar 4
Last Quarter
Mar 11
New
Mar 19
First Quarter

Hourly Weather History & Observations

Time (EST) Temp. Windchill Dew Point Humidity Pressure Visibility Wind Dir Wind Speed Gust Speed Precip Events Conditions
12:15 AM 28.6 °F - 12.9 °F 52% 30.15 in 10.0 mi Calm Calm - N/A   Clear
12:35 AM 28.4 °F 22.2 °F 12.4 °F 51% 30.15 in 10.0 mi NNW 5.8 mph - N/A   Clear
12:55 AM 28.4 °F 24.6 °F 12.2 °F 51% 30.15 in 10.0 mi NNW 3.5 mph - N/A   Clear
1:15 AM 28.2 °F 21.0 °F 11.5 °F 50% 30.15 in 10.0 mi NNW 6.9 mph - N/A   Clear
1:35 AM 28.2 °F 23.1 °F 10.9 °F 48% 30.16 in 10.0 mi NNW 4.6 mph - N/A   Clear
1:55 AM 27.9 °F 22.6 °F 11.1 °F 50% 30.15 in 10.0 mi NNW 4.6 mph - N/A   Clear
2:15 AM 27.9 °F 24.0 °F 10.9 °F 49% 30.16 in 10.0 mi NNW 3.5 mph - N/A   Clear
2:35 AM 27.5 °F 23.6 °F 10.9 °F 50% 30.15 in 10.0 mi NNW 3.5 mph - N/A   Clear
2:55 AM 27.5 °F 22.2 °F 11.1 °F 50% 30.15 in 10.0 mi NNW 4.6 mph - N/A   Clear
3:15 AM 27.3 °F 22.0 °F 10.8 °F 50% 30.14 in 10.0 mi NW 4.6 mph - N/A   Clear
3:35 AM 27.1 °F 21.8 °F 10.9 °F 51% 30.14 in 10.0 mi NNW 4.6 mph - N/A   Clear
3:55 AM 26.6 °F 20.0 °F 10.8 °F 51% 30.14 in 10.0 mi NW 5.8 mph - N/A   Clear
4:15 AM 26.6 °F 22.6 °F 10.4 °F 51% 30.15 in 10.0 mi NNW 3.5 mph - N/A   Clear
4:35 AM 26.2 °F 22.1 °F 10.4 °F 51% 30.15 in 10.0 mi NNW 3.5 mph - N/A   Clear
4:55 AM 25.9 °F 21.7 °F 10.2 °F 52% 30.16 in 10.0 mi NW 3.5 mph - N/A   Clear
5:15 AM 25.7 °F - 10.4 °F 52% 30.17 in 10.0 mi Calm Calm - N/A   Clear
5:35 AM 25.5 °F - 10.4 °F 53% 30.17 in 10.0 mi Calm Calm - N/A   Clear
5:55 AM 24.8 °F - 11.5 °F 57% 30.17 in 10.0 mi Calm Calm - N/A   Clear
6:15 AM 24.6 °F - 11.7 °F 58% 30.18 in 10.0 mi Calm Calm - N/A   Clear
6:55 AM 20.8 °F - 12.4 °F 70% 30.20 in 10.0 mi Calm Calm - N/A   Clear
7:15 AM 21.6 °F - 13.1 °F 70% 30.20 in 10.0 mi Calm Calm - N/A   Clear
7:35 AM 24.4 °F 20.1 °F 14.7 °F 67% 30.21 in 10.0 mi West 3.5 mph - N/A   Clear
7:55 AM 26.6 °F 22.6 °F 13.5 °F 58% 30.22 in 10.0 mi West 3.5 mph - N/A   Clear
8:15 AM 27.7 °F 22.4 °F 13.3 °F 55% 30.22 in 10.0 mi West 4.6 mph - N/A   Clear
8:35 AM 28.6 °F 23.5 °F 12.0 °F 50% 30.22 in 10.0 mi NW 4.6 mph - N/A   Clear
8:55 AM 29.7 °F 22.8 °F 11.8 °F 48% 30.22 in 10.0 mi West 6.9 mph - N/A   Clear
9:15 AM 30.9 °F 23.5 °F 11.3 °F 44% 30.22 in 10.0 mi NW 8.1 mph - N/A   Clear
9:35 AM 32.0 °F 25.6 °F 11.5 °F 43% 30.22 in 10.0 mi NW 6.9 mph - N/A   Clear
9:55 AM 32.5 °F 24.8 °F 11.3 °F 41% 30.22 in 10.0 mi WNW 9.2 mph - N/A   Clear
10:15 AM 32.9 °F 25.3 °F 10.9 °F 40% 30.21 in 10.0 mi West 9.2 mph - N/A   Clear
10:35 AM 34.3 °F 28.4 °F 11.5 °F 39% 30.21 in 10.0 mi WNW 6.9 mph - N/A   Clear
10:55 AM 35.4 °F 27.8 °F 11.8 °F 38% 30.22 in 10.0 mi NW 10.4 mph 17.3 mph N/A   Clear
11:15 AM 35.6 °F 30.7 °F 11.5 °F 37% 30.21 in 10.0 mi West 5.8 mph - N/A   Clear
11:35 AM 36.3 °F 29.5 °F 11.1 °F 35% 30.21 in 10.0 mi WNW 9.2 mph 17.3 mph N/A   Clear
11:55 AM 37.6 °F 30.0 °F 11.8 °F 35% 30.20 in 10.0 mi WNW 11.5 mph - N/A   Clear
12:15 PM 38.3 °F 31.4 °F 12.0 °F 34% 30.20 in 10.0 mi WNW 10.4 mph 16.1 mph N/A   Clear
12:35 PM 38.5 °F 31.6 °F 11.8 °F 34% 30.20 in 10.0 mi West 10.4 mph 17.3 mph N/A   Clear
12:55 PM 39.9 °F 34.5 °F 12.7 °F 33% 30.18 in 10.0 mi WNW 8.1 mph 16.1 mph N/A   Clear
1:15 PM 40.1 °F 32.7 °F 12.6 °F 33% 30.17 in 10.0 mi WSW 12.7 mph 16.1 mph N/A   Clear
1:35 PM 40.3 °F 35.5 °F 12.6 °F 32% 30.16 in 10.0 mi NNW 6.9 mph - N/A   Clear
1:55 PM 41.2 °F 36.0 °F 13.6 °F 33% 30.16 in 10.0 mi West 8.1 mph - N/A   Clear
2:15 PM 41.2 °F 34.5 °F 13.1 °F 32% 30.15 in 10.0 mi WNW 11.5 mph - N/A   Clear
2:35 PM 41.7 °F 36.7 °F 13.6 °F 32% 30.16 in 10.0 mi WNW 8.1 mph - N/A   Clear
2:55 PM 41.7 °F 36.1 °F 13.5 °F 32% 30.16 in 10.0 mi WNW 9.2 mph 16.1 mph N/A   Clear
3:15 PM 41.5 °F 37.1 °F 13.3 °F 32% 30.16 in 10.0 mi NNW 6.9 mph - N/A   Clear
3:35 PM 42.1 °F 37.7 °F 13.8 °F 32% 30.16 in 10.0 mi WNW 6.9 mph - N/A   Clear
3:55 PM 41.5 °F 35.9 °F 13.5 °F 32% 30.16 in 10.0 mi NW 9.2 mph - N/A   Clear
4:15 PM 42.1 °F 37.1 °F 14.0 °F 32% 30.16 in 10.0 mi NW 8.1 mph - N/A   Clear
4:35 PM 41.5 °F 37.8 °F 14.0 °F 33% 30.17 in 10.0 mi WNW 5.8 mph - N/A   Clear
4:55 PM 41.2 °F 36.0 °F 14.7 °F 34% 30.18 in 10.0 mi NNW 8.1 mph - N/A   Clear
5:15 PM 40.5 °F 37.3 °F 14.9 °F 35% 30.20 in 10.0 mi NW 4.6 mph - N/A   Clear
5:35 PM 39.6 °F 35.4 °F 14.9 °F 37% 30.21 in 10.0 mi NNW 5.8 mph - N/A   Clear
5:55 PM 37.9 °F 34.4 °F 15.1 °F 39% 30.21 in 10.0 mi NNW 4.6 mph - N/A   Clear
6:15 PM 37.4 °F 33.8 °F 15.1 °F 40% 30.23 in 10.0 mi NNW 4.6 mph - N/A   Clear
6:35 PM 37.4 °F 33.8 °F 14.4 °F 39% 30.24 in 10.0 mi NW 4.6 mph - N/A   Clear
6:55 PM 36.3 °F 30.8 °F 14.5 °F 41% 30.25 in 10.0 mi NNW 6.9 mph - N/A   Clear
7:15 PM 36.1 °F 31.4 °F 14.2 °F 41% 30.26 in 10.0 mi NNW 5.8 mph - N/A   Clear
7:35 PM 35.2 °F 31.2 °F 14.7 °F 43% 30.26 in 10.0 mi NNW 4.6 mph - N/A   Clear
7:55 PM 34.7 °F 30.6 °F 14.7 °F 44% 30.27 in 10.0 mi NNW 4.6 mph - N/A   Clear
8:15 PM 34.2 °F 29.0 °F 15.3 °F 46% 30.27 in 10.0 mi NNW 5.8 mph - N/A   Clear
8:35 PM 34.5 °F 28.6 °F 15.6 °F 46% 30.28 in 10.0 mi NNW 6.9 mph - N/A   Clear
8:55 PM 34.2 °F 30.0 °F 16.0 °F 47% 30.29 in 10.0 mi NNW 4.6 mph - N/A   Clear
9:15 PM 34.3 °F 27.7 °F 15.8 °F 47% 30.29 in 10.0 mi NNW 8.1 mph - N/A   Clear
9:35 PM 34.0 °F 27.2 °F 15.8 °F 47% 30.30 in 10.0 mi NNW 8.1 mph - N/A   Clear
9:55 PM 33.8 °F 27.7 °F 15.8 °F 48% 30.31 in 10.0 mi NNW 6.9 mph - N/A   Clear
10:15 PM 33.1 °F 26.1 °F 16.7 °F 51% 30.30 in 10.0 mi NNW 8.1 mph - N/A   Clear
10:35 PM 32.9 °F 29.8 °F 16.5 °F 51% 30.31 in 10.0 mi NW 3.5 mph - N/A   Clear
10:55 PM 32.9 °F - 16.2 °F 50% 30.32 in 10.0 mi Calm Calm - N/A   Clear
11:15 PM 32.0 °F - 16.9 °F 54% 30.30 in 10.0 mi Calm Calm - N/A   Clear
11:35 PM 32.0 °F - 16.7 °F 53% 30.30 in 10.0 mi Calm Calm - N/A   Clear
11:55 PM 32.0 °F - 17.1 °F 54% 30.29 in 10.0 mi Calm Calm - N/A   Clear